This is the latest recevied weather packets stored in our database for station/object W5CRT. If no packets are shown the sender has not sent any weather packets the latest 10 day(s).
| Time | Temp. | Humidity | Pressure | Rain* | Wind** | Luminosity | Snow |
|---|---|---|---|---|---|---|---|
| 1777423526 | 26.11° C | 83% | 1007.4 hPa | 0 mm | - | 32 W/m² | - |
| 1777423220 | 26.11° C | 83% | 1007.4 hPa | 0 mm | - | 45 W/m² | - |
| 1777422914 | 26.67° C | 82% | 1007.4 hPa | 0 mm | - | 61 W/m² | - |
| 1777422611 | 26.67° C | 82% | 1007.3 hPa | 0 mm | - | 76 W/m² | - |
| 1777422307 | 26.67° C | 82% | 1007.5 hPa | 0 mm | - | 90 W/m² | - |
| 1777422007 | 26.67° C | 82% | 1007.4 hPa | 0 mm | - | 97 W/m² | - |
| 1777421701 | 26.67° C | 83% | 1007.2 hPa | 0 mm | - | 102 W/m² | - |
| 1777421396 | 26.11° C | 83% | 1007.2 hPa | 0 mm | - | 86 W/m² | - |
| 1777421093 | 26.67° C | 82% | 1007.2 hPa | 0 mm | - | 99 W/m² | - |
| 1777420789 | 26.67° C | 82% | 1007.1 hPa | 0 mm | - | 128 W/m² | - |
| 1777420485 | 26.11° C | 83% | 1007.4 hPa | 0 mm | - | 135 W/m² | - |
| 1777420183 | 26.67° C | 83% | 1007.3 hPa | 0 mm | - | 103 W/m² | - |
| 1777419878 | 26.67° C | 82% | 1007.5 hPa | 0 mm | - | 116 W/m² | - |
| 1777419576 | 26.67° C | 83% | 1006.9 hPa | 0 mm | - | 188 W/m² | - |
| 1777419274 | 26.11° C | 85% | 1006.7 hPa | 0 mm | - | 230 W/m² | - |
| 1777418972 | 25.56° C | 86% | 1007.1 hPa | 0 mm | - | 134 W/m² | - |
| 1777418667 | 25.56° C | 86% | 1006.2 hPa | 0 mm | - | 97 W/m² | - |
| 1777418363 | 25.56° C | 86% | 1005.8 hPa | 0 mm | - | 58 W/m² | - |
| 1777418059 | 25.56° C | 86% | 1005.9 hPa | 0 mm | - | 40 W/m² | - |
| 1777417756 | 25.56° C | 86% | 1006.6 hPa | 0 mm | - | 26 W/m² | - |
| 1777417451 | 25° C | 86% | 1007.5 hPa | 0 mm | - | 17 W/m² | - |
| 1777417148 | 25° C | 86% | 1006.8 hPa | 0 mm | - | 12 W/m² | - |
| 1777416843 | 25° C | 86% | 1006.5 hPa | 0 mm | - | 12 W/m² | - |
| 1777416539 | 25° C | 86% | 1006.6 hPa | 0 mm | - | 11 W/m² | - |
| 1777416236 | 25.56° C | 86% | 1007.3 hPa | 0 mm | - | 9 W/m² | - |
* Rain latest hour (hover to see other rain measurements)
** Current wind speed in m/s (hover to see current wind gust speed)